Regional Weather Roundup
Issued by NWS Cleveland, OH

Home | Current Version | Previous Version | Graphics & Text | Print | Product List | Glossary On
Versions: 1 2 3 4 5 6 7 8 9 10 11 12 13 14 15 16 17 18 19 20 21 22 23 24 25 26 27 28 29 30 31 32 33 34 35 36 37 38 39 40 41 42 43 44 45 46 47 48 49 50
000
ASUS41 KCLE 022100
RWRCLE
OHIO REGIONAL WEATHER ROUNDUP
NATIONAL WEATHER SERVICE WILMINGTON, OH
500 PM EDT WED SEP 02 2015

NOTE: "FAIR" INDICATES FEW OR NO CLOUDS BELOW 12,000 FEET WITH NO
SIGNIFICANT WEATHER AND/OR OBSTRUCTIONS TO VISIBILITY.

OHZ001>008-015>018-024>027-034-035-043-044-022200-
   NORTHWEST OHIO

CITY           SKY/WX    TMP DP  RH WIND       PRES   REMARKS
DEFIANCE       FAIR      91  66  43 W8        30.00S HX  93
FINDLAY        FAIR      89  70  53 W10       29.99F HX  94
TOLEDO EXPRESS PTSUNNY   80  71  74 S7        29.98F
TOLEDO EXEC    FAIR      77  65  66 SW8       29.99F
LIMA           FAIR      88  68  51 W9        30.02F HX  91
$$

OHZ009>014-019>023-028>033-038-089-022200-
   NORTHEAST OHIO

CITY           SKY/WX    TMP DP  RH WIND       PRES   REMARKS
CLE-HOPKINS    FAIR      89  68  49 W13G20    30.00F HX  93
CLE-LAKEFRONT  FAIR      82  72  71 CALM      29.98F
CUY CO. ARPT   PTSUNNY   88  73  62 W9        30.00F HX  96
LORAIN-ELYRIA  FAIR      86  68  54 NW7       30.00F
ASHTABULA      FAIR      84  69  60 NW7       30.00F
AKRON-CANTON   PTSUNNY   86  65  49 CALM      30.01F
WOOSTER        NOT AVBL
MANSFIELD      FAIR      83  69  62 SW7       30.04F
YOUNGSTOWN     PTSUNNY   85  65  51 N8        30.01F
$$

OHZ042-051>053-060>062-070>072-077>081-022200-
  SOUTHWEST OHIO

CITY           SKY/WX    TMP DP  RH WIND       PRES   REMARKS
CINC-COVINGTON FAIR      89  67  47 W5        30.04F HX  92
CINC-LUNKEN    FAIR      88  68  51 W8        30.02F HX  91
HAMILTON       FAIR      90  66  45 W8        30.04F HX  92
DAYTON         NOT AVBL
WRIGHT-PAT AFB MOSUNNY   76  69  78 S8        30.04F
DAYTON GENERAL FAIR      74  68  81 E3        30.04F
WILMINGTON     FAIR      77  69  76 CALM      30.06S
$$

OHZ036-037-039>041-045>050-054>059-063>069-073>076-082>088-022200-
  CENTRAL AND SOUTHEAST OHIO

CITY           SKY/WX    TMP DP  RH WIND       PRES   REMARKS
COLUMBUS       LGT RAIN  74  68  81 SW6       30.03F
OSU AIRPORT    NOT AVBL
BOLTON FIELD   TSTM      75  68  78 NE12G26   30.05F
RICKENBACK AFB NOT AVBL
NEWARK         FAIR      80  66  62 NW8       30.03F
MARION         FAIR      84  69  60 SW5       30.03F
LANCASTER      FAIR      85  68  56 NW9       30.03F
ZANESVILLE     FAIR      87  65  47 NW8       30.02F
NEW PHILLY     FAIR      82  67  60 NW10      30.03S
$$


USA.gov is the U.S. government's official web portal to all federal, state and local government web resources and services.